Regional Weather Roundup
Issued by NWS New Orleans/Baton Rouge, LA

Home | Current Version | Previous Version | Text Only | Print | Product List | Glossary On
Versions: 1 2 3 4 5 6 7 8 9 10 11 12 13 14 15 16 17 18 19 20 21 22 23 24 25 26 27
000
ASUS44 KLIX 200813
RWRLIX
NEW ORLEANS REGIONAL WEATHER ROUNDUP
NATIONAL WEATHER SERVICE NEW ORLEANS LA
300 AM CDT FRI OCT 20 2017

NOTE: "FAIR" INDICATES FEW OR NO CLOUDS BELOW 12,000 FEET WITH NO
      SIGNIFICANT WEATHER AND/OR OBSTRUCTIONS TO VISIBILITY.
      SKY/WX - SKY CONDITION AND SIGNIFICANT WEATHER.
      TMP - AIR TEMPERATURE.     DP    - DEWPOINT TEMPERATURE.
      RH  - RELATIVE HUMIDITY.   PRES  - PRESSURE.
      HI  - HEAT INDEX.          WCI   - WIND CHILL INDEX.

*  THESE STATIONS ARE NOT NWS OR FAA STATIONS AND ARE NOT UNDER
   NWS QUALITY CONTROL.

LAZ038-040-048-061>063-065>067-069-200900-
SOUTHEAST LOUISIANA

CITY           SKY/WX    TMP DP  RH WIND       PRES   REMARKS
N.O. INTL ARPT   N/A     71  67  87 E6        30.13F
N.O. LAKEFRONT   N/A     72  67  84 E12       30.13F
N.O. DOWNTOWN*   N/A     71  66  84 NE6       30.14F
RESERVE*         N/A     70  66  89 NE3       30.14S
SLIDELL          N/A     62  59  90 NE5       30.14F
BATON ROUGE      N/A     65  64  97 E8        30.14S
BOOTHVILLE     MOCLDY    78  68  71 E5        30.12F
BELLE CHASSE   NOT AVBL
BOGALUSA*        N/A     58  55  90 CALM      30.18F
GALLIANO*        N/A     66  63  91 CALM      30.11F
NEW ROADS*       N/A     65  64  97 E5        30.13F
GONZALES*        N/A     65  63  93 CALM      30.13S
HAMMOND*         N/A     63  59  88 CALM      30.15S
HOUMA*           N/A    N/A N/A N/A NE3       30.12S
PORT FOURCHON* NOT AVBL

$$

MSZ070-080>082-200900-
SOUTHERN MISSISSIPPI

CITY           SKY/WX    TMP DP  RH WIND       PRES   REMARKS
MCCOMB           N/A     62  59  90 CALM      30.17F
GULFPORT         N/A     66  60  81 NE5       30.14F
BILOXI           N/A     64  60  86 NE7       30.14F
PASCAGOULA       N/A     60  57  89 N3        30.15F

$$

COASTAL OBSERVATIONS
LAKE AND NEARSHORE STATIONS

STATION/POSITION TIME  TEMP    WIND        PRES    WAVE
                       AIR SEA DIR/SP/G            HT/PER
                 (UTC) (F)     (DEG/KT/KT) (MB)    (FT/S)
PASCAGOULA       0748   66      50/  9/ 11 1020.5
WAVELAND YACHT   0748   67 72   70/ 12/ 13 1020.8
GRAND ISLE       0748   76 76  110/ 10/ 13 1019.6
NEW CANAL        0748   71 75   80/  8/ 12 1020.1
SHELL BEACH      0748   73 76   50/ 15/ 17 1020.1

OFFSHORE STATIONS

STATION/POSITION TIME  TEMP    WIND        PRES    WAVE
                       AIR SEA DIR/SP/G            HT/PER
                 (UTC) (F)     (DEG/KT/KT) (MB)    (FT/S)
64 S DAUPHIN ISL 0750   80 82   80/ 14/ 17 1019.5    4/ 5

$$





USA.gov is the U.S. government's official web portal to all federal, state and local government web resources and services.